Time,TemperatureF,DewpointF,PressureIn,WindDirection,WindDirectionDegrees,WindSpeedMPH,WindSpeedGustMPH,Humidity,HourlyPrecipIn,Conditions,Clouds,dailyrainin,SoftwareType,DateUTC
2013-06-02 00:02:00,77.0,-99.9,29.84,SSW,198,2.0,9.0,72,0.00,,,0.00,,2013-06-02 04:02:00,
2013-06-02 00:13:00,77.0,67.0,29.84,SSW,198,2.0,9.0,72,0.00,,,0.00,,2013-06-02 04:13:00,
2013-06-02 00:23:00,77.0,68.0,29.84,SSE,160,2.0,6.0,73,0.00,,,0.00,,2013-06-02 04:23:00,
2013-06-02 00:33:00,77.0,68.0,29.84,South,174,3.0,9.0,74,0.00,,,0.00,,2013-06-02 04:33:00,
2013-06-02 00:42:00,77.0,68.0,29.84,South,174,3.0,9.0,74,0.00,,,0.00,,2013-06-02 04:42:00,
2013-06-02 00:53:00,76.0,67.0,29.84,WSW,239,3.0,7.0,75,0.00,,,0.00,,2013-06-02 04:53:00,
2013-06-02 01:02:00,76.0,67.0,29.84,SW,215,2.0,7.0,75,0.00,,,0.00,,2013-06-02 05:02:00,
2013-06-02 01:12:00,76.0,67.0,29.84,SW,215,2.0,7.0,75,0.00,,,0.00,,2013-06-02 05:12:00,
2013-06-02 01:22:00,76.0,68.0,29.83,SSE,159,2.0,7.0,76,0.00,,,0.00,,2013-06-02 05:22:00,
2013-06-02 01:32:00,75.0,67.0,29.83,SSW,195,2.0,5.0,77,0.00,,,0.00,,2013-06-02 05:32:00,
2013-06-02 01:42:00,75.0,67.0,29.83,SSW,195,2.0,5.0,77,0.00,,,0.00,,2013-06-02 05:42:00,
2013-06-02 01:52:00,75.0,67.0,29.83,SSW,197,3.0,8.0,77,0.00,,,0.00,,2013-06-02 05:52:00,
2013-06-02 02:01:00,74.0,67.0,29.83,SSW,205,3.0,7.0,78,0.00,,,0.00,,2013-06-02 06:01:00,
2013-06-02 02:12:00,74.0,67.0,29.83,SSW,205,3.0,7.0,78,0.00,,,0.00,,2013-06-02 06:12:00,
2013-06-02 02:21:00,74.0,67.0,29.82,WSW,242,3.0,6.0,78,0.00,,,0.00,,2013-06-02 06:21:00,
2013-06-02 02:32:00,74.0,67.0,29.82,WSW,246,3.0,5.0,79,0.00,,,0.00,,2013-06-02 06:32:00,
2013-06-02 02:42:00,74.0,67.0,29.82,WSW,246,3.0,5.0,79,0.00,,,0.00,,2013-06-02 06:42:00,
2013-06-02 02:52:00,74.0,67.0,29.82,SSE,159,3.0,5.0,79,0.00,,,0.00,,2013-06-02 06:52:00,
2013-06-02 03:01:00,73.0,66.0,29.81,South,179,3.0,5.0,79,0.00,,,0.00,,2013-06-02 07:01:00,
2013-06-02 03:11:00,73.0,66.0,29.81,South,179,3.0,5.0,79,0.00,,,0.00,,2013-06-02 07:11:00,
2013-06-02 03:22:00,73.0,66.0,29.81,SSW,201,2.0,5.0,80,0.00,,,0.00,,2013-06-02 07:22:00,
2013-06-02 03:32:00,73.0,66.0,29.81,South,172,3.0,6.0,80,0.00,,,0.00,,2013-06-02 07:32:00,
2013-06-02 03:42:00,73.0,66.0,29.81,South,172,3.0,6.0,80,0.00,,,0.00,,2013-06-02 07:42:00,
2013-06-02 03:52:00,73.0,66.0,29.81,SW,217,3.0,4.0,80,0.00,,,0.00,,2013-06-02 07:52:00,
2013-06-02 04:02:00,72.0,66.0,29.81,SSW,203,2.0,5.0,81,0.00,,,0.00,,2013-06-02 08:02:00,
2013-06-02 04:12:00,72.0,66.0,29.81,SSW,203,2.0,5.0,81,0.00,,,0.00,,2013-06-02 08:12:00,
2013-06-02 04:21:00,72.0,66.0,29.81,SSW,211,3.0,6.0,82,0.00,,,0.00,,2013-06-02 08:21:00,
2013-06-02 04:32:00,72.0,66.0,29.80,South,177,3.0,7.0,82,0.00,,,0.00,,2013-06-02 08:32:00,
2013-06-02 04:42:00,72.0,66.0,29.80,South,177,3.0,7.0,82,0.00,,,0.00,,2013-06-02 08:42:00,
2013-06-02 04:52:00,72.0,66.0,29.81,South,189,2.0,5.0,82,0.00,,,0.00,,2013-06-02 08:52:00,
2013-06-02 05:01:00,72.0,67.0,29.81,SSE,149,3.0,6.0,83,0.00,,,0.00,,2013-06-02 09:01:00,
2013-06-02 05:11:00,72.0,67.0,29.81,SSE,149,3.0,6.0,83,0.00,,,0.00,,2013-06-02 09:11:00,
2013-06-02 05:21:00,72.0,67.0,29.81,South,174,3.0,7.0,83,0.00,,,0.00,,2013-06-02 09:21:00,
2013-06-02 05:33:00,71.0,66.0,29.81,SSE,157,2.0,4.0,84,0.00,,,0.00,,2013-06-02 09:33:00,
2013-06-02 05:42:00,71.0,66.0,29.81,SSE,157,2.0,4.0,84,0.00,,,0.00,,2013-06-02 09:42:00,
2013-06-02 05:53:00,71.0,66.0,29.82,SSW,194,3.0,6.0,85,0.00,,,0.00,,2013-06-02 09:53:00,
2013-06-02 06:02:00,71.0,66.0,29.82,SSE,149,3.0,6.0,85,0.00,,,0.00,,2013-06-02 10:02:00,
2013-06-02 06:12:00,71.0,66.0,29.82,SSE,149,3.0,6.0,85,0.00,,,0.00,,2013-06-02 10:12:00,
2013-06-02 06:23:00,71.0,67.0,29.82,SSW,200,3.0,6.0,86,0.00,,,0.00,,2013-06-02 10:23:00,
2013-06-02 06:32:00,71.0,67.0,29.82,South,169,3.0,6.0,86,0.00,,,0.00,,2013-06-02 10:32:00,
2013-06-02 06:42:00,71.0,67.0,29.82,South,169,3.0,6.0,86,0.00,,,0.00,,2013-06-02 10:42:00,
2013-06-02 06:52:00,71.0,67.0,29.82,South,179,3.0,6.0,86,0.00,,,0.00,,2013-06-02 10:52:00,
2013-06-02 07:02:00,71.0,66.0,29.82,South,191,4.0,8.0,85,0.00,,,0.00,,2013-06-02 11:02:00,
2013-06-02 07:12:00,71.0,66.0,29.82,South,191,4.0,8.0,85,0.00,,,0.00,,2013-06-02 11:12:00,
2013-06-02 07:22:00,72.0,67.0,29.82,SSE,161,3.0,7.0,85,0.00,,,0.00,,2013-06-02 11:22:00,
2013-06-02 07:32:00,73.0,68.0,29.82,SE,134,3.0,8.0,84,0.00,,,0.00,,2013-06-02 11:32:00,
2013-06-02 07:42:00,73.0,68.0,29.82,SE,134,3.0,8.0,84,0.00,,,0.00,,2013-06-02 11:42:00,
2013-06-02 07:52:00,73.0,68.0,29.82,West,276,2.0,10.0,83,0.00,,,0.00,,2013-06-02 11:52:00,
2013-06-02 08:01:00,74.0,68.0,29.82,SSE,166,3.0,6.0,82,0.00,,,0.00,,2013-06-02 12:01:00,
2013-06-02 08:11:00,74.0,68.0,29.82,SSE,166,3.0,6.0,82,0.00,,,0.00,,2013-06-02 12:11:00,
2013-06-02 08:22:00,75.0,69.0,29.82,SSW,204,3.0,6.0,81,0.00,,,0.00,,2013-06-02 12:22:00,
2013-06-02 08:32:00,75.0,68.0,29.81,South,191,3.0,9.0,80,0.00,,,0.00,,2013-06-02 12:32:00,
2013-06-02 08:42:00,75.0,68.0,29.81,South,191,3.0,9.0,80,0.00,,,0.00,,2013-06-02 12:42:00,
2013-06-02 08:53:00,76.0,69.0,29.81,SSE,156,3.0,13.0,79,0.00,,,0.00,,2013-06-02 12:53:00,
2013-06-02 09:01:00,77.0,69.0,29.80,SSW,207,2.0,9.0,77,0.00,,,0.00,,2013-06-02 13:01:00,
2013-06-02 09:12:00,77.0,69.0,29.80,SSW,207,2.0,9.0,77,0.00,,,0.00,,2013-06-02 13:12:00,
2013-06-02 09:21:00,78.0,70.0,29.81,SW,232,3.0,7.0,76,0.00,,,0.00,,2013-06-02 13:21:00,
2013-06-02 09:32:00,79.0,70.0,29.80,SE,134,3.0,6.0,73,0.00,,,0.00,,2013-06-02 13:32:00,
2013-06-02 09:42:00,79.0,70.0,29.80,SE,134,3.0,6.0,73,0.00,,,0.00,,2013-06-02 13:42:00,
2013-06-02 09:52:00,80.0,70.0,29.80,SSW,195,3.0,10.0,71,0.00,,,0.00,,2013-06-02 13:52:00,
2013-06-02 10:02:00,81.0,70.0,29.80,ESE,121,3.0,8.0,69,0.00,,,0.00,,2013-06-02 14:02:00,
2013-06-02 10:11:00,81.0,70.0,29.80,ESE,121,3.0,8.0,69,0.00,,,0.00,,2013-06-02 14:11:00,
2013-06-02 10:21:00,82.0,70.0,29.79,WSW,243,4.0,11.0,67,0.00,,,0.00,,2013-06-02 14:21:00,
2013-06-02 10:32:00,83.0,70.0,29.79,SW,232,4.0,10.0,65,0.00,,,0.00,,2013-06-02 14:32:00,
2013-06-02 10:42:00,83.0,70.0,29.79,SW,232,4.0,10.0,65,0.00,,,0.00,,2013-06-02 14:42:00,
2013-06-02 10:52:00,84.0,70.0,29.79,SSE,149,4.0,9.0,63,0.00,,,0.00,,2013-06-02 14:52:00,
2013-06-02 11:01:00,85.0,70.0,29.79,WSW,240,5.0,14.0,61,0.00,,,0.00,,2013-06-02 15:01:00,
2013-06-02 11:11:00,85.0,70.0,29.79,WSW,240,5.0,14.0,61,0.00,,,0.00,,2013-06-02 15:11:00,
2013-06-02 11:22:00,86.0,70.0,29.78,SE,143,5.0,10.0,60,0.00,,,0.00,,2013-06-02 15:22:00,
2013-06-02 11:33:00,87.0,69.0,29.78,SSW,213,4.0,10.0,56,0.00,,,0.00,,2013-06-02 15:33:00,
2013-06-02 11:43:00,87.0,69.0,29.78,SSE,149,5.0,11.0,56,0.00,,,0.00,,2013-06-02 15:43:00,
2013-06-02 11:53:00,87.0,69.0,29.78,SSE,149,5.0,11.0,56,0.00,,,0.00,,2013-06-02 15:53:00,
2013-06-02 12:03:00,87.0,69.0,29.77,SSE,162,4.0,12.0,55,0.00,,,0.00,,2013-06-02 16:03:00,
2013-06-02 12:13:00,87.0,69.0,29.77,SSE,162,4.0,12.0,55,0.00,,,0.00,,2013-06-02 16:13:00,
2013-06-02 12:23:00,88.0,69.0,29.77,South,187,4.0,17.0,53,0.00,,,0.00,,2013-06-02 16:23:00,
2013-06-02 12:33:00,88.0,68.0,29.76,SSW,195,4.0,14.0,51,0.00,,,0.00,,2013-06-02 16:33:00,
2013-06-02 12:42:00,88.0,68.0,29.76,SSW,195,4.0,14.0,51,0.00,,,0.00,,2013-06-02 16:42:00,
2013-06-02 12:53:00,88.0,68.0,29.76,South,172,5.0,17.0,51,0.00,,,0.00,,2013-06-02 16:53:00,
2013-06-02 13:02:00,89.0,67.0,29.76,WNW,293,5.0,13.0,49,0.00,,,0.00,,2013-06-02 17:02:00,
2013-06-02 13:12:00,89.0,67.0,29.76,WNW,293,5.0,13.0,49,0.00,,,0.00,,2013-06-02 17:12:00,
2013-06-02 13:23:00,90.0,68.0,29.75,South,176,5.0,15.0,48,0.00,,,0.00,,2013-06-02 17:23:00,
2013-06-02 13:32:00,89.0,64.0,29.75,South,176,5.0,16.0,44,0.00,,,0.00,,2013-06-02 17:32:00,
2013-06-02 13:42:00,90.0,65.0,29.74,SSE,166,5.0,17.0,44,0.00,,,0.00,,2013-06-02 17:42:00,
2013-06-02 13:52:00,90.0,65.0,29.74,SSE,166,5.0,17.0,44,0.00,,,0.00,,2013-06-02 17:52:00,
2013-06-02 14:02:00,91.0,68.0,29.73,SSW,198,4.0,14.0,47,0.00,,,0.00,,2013-06-02 18:02:00,
2013-06-02 14:11:00,91.0,68.0,29.73,SSW,198,4.0,14.0,47,0.00,,,0.00,,2013-06-02 18:11:00,
2013-06-02 14:21:00,91.0,67.0,29.73,South,188,6.0,11.0,46,0.00,,,0.00,,2013-06-02 18:21:00,
2013-06-02 14:32:00,90.0,66.0,29.72,SSE,153,7.0,19.0,46,0.00,,,0.00,,2013-06-02 18:32:00,
2013-06-02 14:42:00,90.0,64.0,29.72,SSW,208,6.0,12.0,42,0.00,,,0.00,,2013-06-02 18:42:00,
2013-06-02 14:52:00,90.0,64.0,29.72,SSW,208,6.0,12.0,42,0.00,,,0.00,,2013-06-02 18:52:00,
2013-06-02 15:01:00,90.0,66.0,29.70,SSW,197,8.0,18.0,45,0.00,,,0.00,,2013-06-02 19:01:00,
2013-06-02 15:11:00,90.0,66.0,29.70,SSW,197,8.0,18.0,45,0.00,,,0.00,,2013-06-02 19:11:00,
2013-06-02 15:21:00,90.0,66.0,29.70,SE,131,5.0,18.0,46,0.00,,,0.00,,2013-06-02 19:21:00,
2013-06-02 15:32:00,90.0,66.0,29.70,SSE,151,6.0,15.0,45,0.00,,,0.00,,2013-06-02 19:32:00,
2013-06-02 15:42:00,90.0,66.0,29.70,SSE,151,6.0,15.0,45,0.00,,,0.00,,2013-06-02 19:42:00,
2013-06-02 15:52:00,90.0,66.0,29.69,SSE,162,6.0,19.0,46,0.00,,,0.00,,2013-06-02 19:52:00,
2013-06-02 16:02:00,89.0,65.0,29.69,SSE,152,7.0,17.0,45,0.00,,,0.00,,2013-06-02 20:02:00,
2013-06-02 16:11:00,89.0,65.0,29.69,SSE,152,7.0,17.0,45,0.00,,,0.00,,2013-06-02 20:11:00,
2013-06-02 16:22:00,89.0,66.0,29.69,SSW,200,6.0,14.0,47,0.00,,,0.00,,2013-06-02 20:22:00,
2013-06-02 16:32:00,89.0,65.0,29.69,WSW,241,8.0,21.0,45,0.00,,,0.00,,2013-06-02 20:32:00,
2013-06-02 16:42:00,89.0,65.0,29.69,WSW,241,8.0,21.0,45,0.00,,,0.00,,2013-06-02 20:42:00,
2013-06-02 16:52:00,88.0,65.0,29.69,SSE,167,10.0,24.0,46,0.00,,,0.00,,2013-06-02 20:52:00,
2013-06-02 17:01:00,88.0,65.0,29.68,South,186,5.0,17.0,47,0.00,,,0.00,,2013-06-02 21:01:00,
2013-06-02 17:12:00,88.0,65.0,29.68,South,186,5.0,17.0,47,0.00,,,0.00,,2013-06-02 21:12:00,
2013-06-02 17:22:00,88.0,66.0,29.68,SE,134,7.0,17.0,48,0.00,,,0.00,,2013-06-02 21:22:00,
2013-06-02 17:33:00,88.0,66.0,29.69,SSE,167,6.0,12.0,49,0.00,,,0.00,,2013-06-02 21:33:00,
2013-06-02 17:42:00,88.0,66.0,29.69,SSE,167,6.0,12.0,49,0.00,,,0.00,,2013-06-02 21:42:00,
2013-06-02 17:53:00,87.0,66.0,29.69,South,171,5.0,18.0,50,0.00,,,0.00,,2013-06-02 21:53:00,
2013-06-02 18:03:00,87.0,67.0,29.69,SE,125,7.0,16.0,52,0.00,,,0.00,,2013-06-02 22:03:00,
2013-06-02 18:12:00,87.0,67.0,29.69,SE,125,7.0,16.0,52,0.00,,,0.00,,2013-06-02 22:12:00,
2013-06-02 18:23:00,85.0,67.0,29.69,South,181,5.0,21.0,55,0.00,,,0.00,,2013-06-02 22:23:00,
2013-06-02 18:33:00,84.0,68.0,29.70,SSE,161,4.0,16.0,58,0.00,,,0.00,,2013-06-02 22:33:00,
2013-06-02 18:42:00,84.0,68.0,29.70,SSE,161,4.0,16.0,58,0.00,,,0.00,,2013-06-02 22:42:00,
2013-06-02 18:53:00,83.0,68.0,29.72,SW,219,3.0,10.0,60,0.00,,,0.00,,2013-06-02 22:53:00,
2013-06-02 19:02:00,83.0,69.0,29.72,SW,232,5.0,12.0,62,0.00,,,0.00,,2013-06-02 23:02:00,
2013-06-02 19:12:00,83.0,69.0,29.72,SW,232,5.0,12.0,62,0.00,,,0.00,,2013-06-02 23:12:00,
2013-06-02 19:22:00,82.0,68.0,29.72,SSE,160,5.0,12.0,63,0.00,,,0.00,,2013-06-02 23:22:00,
2013-06-02 19:32:00,81.0,68.0,29.73,South,180,5.0,12.0,65,0.00,,,0.00,,2013-06-02 23:32:00,
2013-06-02 19:42:00,81.0,68.0,29.73,South,180,5.0,12.0,65,0.00,,,0.00,,2013-06-02 23:42:00,
2013-06-02 19:52:00,81.0,69.0,29.73,SSW,201,3.0,6.0,66,0.00,,,0.00,,2013-06-02 23:52:00,
2013-06-02 20:01:00,80.0,68.0,29.74,SSW,211,2.0,6.0,67,0.00,,,0.00,,2013-06-03 00:01:00,
2013-06-02 20:12:00,80.0,68.0,29.75,SSE,148,3.0,12.0,68,0.00,,,0.00,,2013-06-03 00:12:00,
2013-06-02 20:22:00,80.0,68.0,29.75,SSE,148,3.0,12.0,68,0.00,,,0.00,,2013-06-03 00:22:00,
2013-06-02 20:32:00,79.0,69.0,29.76,SSE,155,4.0,7.0,71,0.00,,,0.00,,2013-06-03 00:32:00,
2013-06-02 20:42:00,79.0,69.0,29.76,SSE,155,4.0,7.0,71,0.00,,,0.00,,2013-06-03 00:42:00,
2013-06-02 20:52:00,79.0,69.0,29.75,South,191,1.0,5.0,71,0.00,,,0.00,,2013-06-03 00:52:00,
2013-06-02 21:01:00,78.0,68.0,29.75,South,183,2.0,8.0,72,0.00,,,0.00,,2013-06-03 01:01:00,
2013-06-02 21:11:00,78.0,68.0,29.75,South,183,2.0,8.0,72,0.00,,,0.00,,2013-06-03 01:11:00,
2013-06-02 21:21:00,78.0,68.0,29.77,WSW,239,3.0,7.0,72,0.00,,,0.00,,2013-06-03 01:21:00,
2013-06-02 21:32:00,78.0,69.0,29.77,SSE,153,0.0,3.0,73,0.00,,,0.00,,2013-06-03 01:32:00,
2013-06-02 21:42:00,78.0,69.0,29.77,SSE,153,0.0,3.0,73,0.00,,,0.00,,2013-06-03 01:42:00,
2013-06-02 21:52:00,77.0,68.0,29.77,SSW,207,0.0,1.0,73,0.00,,,0.00,,2013-06-03 01:52:00,
2013-06-02 22:02:00,76.0,67.0,29.77,SSE,163,0.0,2.0,74,0.00,,,0.00,,2013-06-03 02:02:00,
2013-06-02 22:12:00,76.0,67.0,29.77,SSE,163,0.0,2.0,74,0.00,,,0.00,,2013-06-03 02:12:00,
2013-06-02 22:22:00,76.0,67.0,29.77,SSE,165,0.0,1.0,75,0.00,,,0.00,,2013-06-03 02:22:00,
2013-06-02 22:32:00,75.0,67.0,29.77,West,267,0.0,1.0,76,0.00,,,0.00,,2013-06-03 02:32:00,
2013-06-02 22:42:00,75.0,67.0,29.77,West,267,0.0,1.0,76,0.00,,,0.00,,2013-06-03 02:42:00,
2013-06-02 22:52:00,75.0,67.0,29.77,SW,219,1.0,3.0,76,0.00,,,0.00,,2013-06-03 02:52:00,
2013-06-02 23:02:00,74.0,66.0,29.77,SW,228,0.0,2.0,77,0.00,,,0.00,,2013-06-03 03:02:00,
2013-06-02 23:12:00,74.0,66.0,29.77,SW,228,0.0,2.0,77,0.00,,,0.00,,2013-06-03 03:12:00,
2013-06-02 23:22:00,74.0,66.0,29.77,SSW,201,1.0,2.0,77,0.00,,,0.00,,2013-06-03 03:22:00,
2013-06-02 23:33:00,73.0,66.0,29.77,SSW,205,1.0,4.0,78,0.00,,,0.00,,2013-06-03 03:33:00,
2013-06-02 23:43:00,73.0,66.0,29.77,SSW,205,1.0,4.0,78,0.00,,,0.00,,2013-06-03 03:43:00,
2013-06-02 23:53:00,73.0,66.0,29.77,SSW,205,2.0,4.0,79,0.00,,,0.00,,2013-06-03 03:53:00,